Zurück zum Katalog

DELTA 1 DEB

AktivLEO
NORAD 18540·DEBRIS·🇺🇸 United States

Gestartet Jul 29, 1976 von Vandenberg Space Force Base

Loading…

Nächste Überflüge (nächste 24 Stunden)

TLE

AktuellSource: Space-Track

Epoche: Sep 14, 2026, 08:02 UTC

1 18540U 76077FC  26257.33484375 -.00002138  00000-0 -11830-1 0  9994
2 18540 103.7542  42.6730 0435951 223.7268 164.4482 12.36253586626308

Verfolge DELTA 1 DEB in Echtzeit mit AllMySat

Download on the App Store